TimeEDT,TemperatureF,Dew PointF,Humidity,Sea Level PressureIn,VisibilityMPH,Wind Direction,Wind SpeedMPH,Gust SpeedMPH,PrecipitationIn,Events,Conditions,WindDirDegrees,DateUTC
12:53 AM,54.0,53.1,97,29.93,6.0,Calm,Calm,-,N/A,,Mostly Cloudy,0,2013-05-08 04:53:00
1:04 AM,53.6,53.6,100,29.94,1.5,Calm,Calm,-,N/A,,Mostly Cloudy,0,2013-05-08 05:04:00
1:07 AM,53.6,53.6,100,29.94,0.8,Calm,Calm,-,N/A,,Mostly Cloudy,0,2013-05-08 05:07:00
1:16 AM,53.6,53.6,100,29.94,1.5,Calm,Calm,-,N/A,,Mostly Cloudy,0,2013-05-08 05:16:00
1:18 AM,53.6,53.6,100,29.94,3.0,NE,3.5,-,N/A,,Mostly Cloudy,50,2013-05-08 05:18:00
1:53 AM,54.0,53.1,97,29.92,7.0,NNW,3.5,-,N/A,,Mostly Cloudy,330,2013-05-08 05:53:00
2:24 AM,53.6,53.6,100,29.93,1.8,Calm,Calm,-,N/A,,Mostly Cloudy,0,2013-05-08 06:24:00
2:28 AM,53.6,51.8,94,29.93,0.8,Calm,Calm,-,N/A,,Mostly Cloudy,0,2013-05-08 06:28:00
2:37 AM,53.6,53.6,100,29.92,1.5,Calm,Calm,-,N/A,,Scattered Clouds,0,2013-05-08 06:37:00
2:40 AM,53.6,53.6,100,29.92,3.0,Calm,Calm,-,N/A,,Partly Cloudy,0,2013-05-08 06:40:00
2:51 AM,53.6,51.8,94,29.92,1.8,SW,3.5,-,N/A,,Clear,230,2013-05-08 06:51:00
2:53 AM,53.1,52.0,96,29.90,1.8,SW,3.5,-,N/A,,Clear,220,2013-05-08 06:53:00
3:00 AM,53.6,53.6,100,29.92,3.0,WSW,3.5,-,N/A,,Clear,240,2013-05-08 07:00:00
3:23 AM,51.8,51.8,100,29.92,1.8,Calm,Calm,-,N/A,,Partly Cloudy,0,2013-05-08 07:23:00
3:25 AM,51.8,51.8,100,29.92,1.0,Calm,Calm,-,N/A,,Mist,0,2013-05-08 07:25:00
3:39 AM,51.8,51.8,100,29.92,1.5,Calm,Calm,-,N/A,,Partly Cloudy,0,2013-05-08 07:39:00
3:53 AM,52.0,52.0,100,29.91,1.5,Calm,Calm,-,N/A,,Scattered Clouds,0,2013-05-08 07:53:00
4:04 AM,51.8,51.8,100,29.92,1.2,Calm,Calm,-,N/A,,Scattered Clouds,0,2013-05-08 08:04:00
4:08 AM,51.8,51.8,100,29.92,2.0,Calm,Calm,-,N/A,,Partly Cloudy,0,2013-05-08 08:08:00
4:25 AM,51.8,51.8,100,29.93,1.2,West,3.5,-,N/A,,Partly Cloudy,270,2013-05-08 08:25:00
4:27 AM,51.8,51.8,100,29.93,0.8,West,3.5,-,N/A,,Mist,280,2013-05-08 08:27:00
4:34 AM,51.8,51.8,100,29.93,0.8,Calm,Calm,-,N/A,,Mist,0,2013-05-08 08:34:00
4:48 AM,51.8,51.8,100,29.93,1.2,Calm,Calm,-,N/A,,Scattered Clouds,0,2013-05-08 08:48:00
4:50 AM,51.8,51.8,100,29.93,2.0,Calm,Calm,-,N/A,,Partly Cloudy,0,2013-05-08 08:50:00
4:53 AM,51.1,51.1,100,29.92,3.0,Calm,Calm,-,N/A,,Partly Cloudy,0,2013-05-08 08:53:00
5:14 AM,51.8,51.8,100,29.93,1.8,Calm,Calm,-,N/A,,Clear,0,2013-05-08 09:14:00
5:19 AM,50.0,50.0,100,29.94,0.8,WSW,3.5,-,N/A,,Clear,250,2013-05-08 09:19:00
5:28 AM,51.8,50.0,94,29.94,1.8,WSW,4.6,-,N/A,,Clear,250,2013-05-08 09:28:00
5:30 AM,51.8,50.0,94,29.94,1.5,WSW,5.8,-,N/A,,Partly Cloudy,250,2013-05-08 09:30:00
5:33 AM,50.0,50.0,100,29.94,0.8,WSW,4.6,-,N/A,,Mist,250,2013-05-08 09:33:00
5:45 AM,50.0,50.0,100,29.94,1.2,Calm,Calm,-,N/A,,Partly Cloudy,0,2013-05-08 09:45:00
5:47 AM,50.0,50.0,100,29.94,2.0,Calm,Calm,-,N/A,,Partly Cloudy,0,2013-05-08 09:47:00
5:53 AM,51.1,50.0,96,29.92,10.0,Calm,Calm,-,N/A,,Scattered Clouds,0,2013-05-08 09:53:00
6:00 AM,50.0,50.0,100,29.94,1.5,Calm,Calm,-,N/A,,Scattered Clouds,0,2013-05-08 10:00:00
6:03 AM,48.2,48.2,100,29.94,0.8,Calm,Calm,-,N/A,,Scattered Clouds,0,2013-05-08 10:03:00
6:15 AM,50.0,48.2,94,29.94,10.0,Calm,Calm,-,N/A,,Partly Cloudy,0,2013-05-08 10:15:00
6:53 AM,50.0,50.0,100,29.94,10.0,Calm,Calm,-,N/A,,Clear,0,2013-05-08 10:53:00
7:53 AM,53.1,53.1,100,29.96,10.0,Calm,Calm,-,N/A,,Clear,0,2013-05-08 11:53:00
8:53 AM,60.1,54.0,80,29.97,10.0,Calm,Calm,-,N/A,,Clear,0,2013-05-08 12:53:00
9:53 AM,66.0,55.9,70,29.97,10.0,SW,5.8,-,N/A,,Clear,220,2013-05-08 13:53:00
10:53 AM,68.0,55.9,65,29.98,10.0,WSW,4.6,-,N/A,,Mostly Cloudy,250,2013-05-08 14:53:00
11:53 AM,66.9,54.0,63,29.98,10.0,SW,9.2,-,N/A,,Mostly Cloudy,230,2013-05-08 15:53:00
12:53 PM,72.0,57.0,59,29.97,10.0,SW,10.4,-,N/A,,Scattered Clouds,230,2013-05-08 16:53:00
1:53 PM,72.0,55.9,57,29.96,10.0,West,11.5,16.1,N/A,,Clear,260,2013-05-08 17:53:00
2:53 PM,75.0,55.0,50,29.95,10.0,West,4.6,16.1,N/A,,Mostly Cloudy,260,2013-05-08 18:53:00
3:53 PM,75.0,57.0,53,29.94,10.0,West,12.7,18.4,N/A,,Overcast,270,2013-05-08 19:53:00
4:53 PM,73.0,53.1,49,29.94,10.0,West,10.4,-,N/A,,Mostly Cloudy,270,2013-05-08 20:53:00
5:53 PM,75.0,55.0,50,29.94,10.0,West,9.2,-,N/A,,Overcast,260,2013-05-08 21:53:00
6:53 PM,73.0,55.0,53,29.94,10.0,West,6.9,-,N/A,,Partly Cloudy,270,2013-05-08 22:53:00
7:53 PM,70.0,54.0,57,29.96,10.0,WSW,8.1,-,N/A,,Mostly Cloudy,250,2013-05-08 23:53:00
8:53 PM,64.9,53.1,65,29.99,10.0,West,3.5,-,N/A,,Partly Cloudy,270,2013-05-09 00:53:00
9:53 PM,64.9,53.1,65,29.99,10.0,Calm,Calm,-,N/A,,Clear,0,2013-05-09 01:53:00
10:53 PM,61.0,54.0,78,30.01,10.0,Calm,Calm,-,N/A,,Clear,0,2013-05-09 02:53:00
11:53 PM,60.1,54.0,80,30.01,10.0,Calm,Calm,-,N/A,,Clear,0,2013-05-09 03:53:00